Вернуться в каталог

STARLINK-31143

АктивенСвязьVLEO
NORAD 58770·PAYLOAD·🇺🇸 United States

Запущен Jan 14, 2024 с Vandenberg Space Force Base

Loading…

Ближайшие Пролёты (ближайшие 24 часа)

TLE

СвежийSource: CelesTrak SupGP

Эпоха: Sep 15, 2026, 03:13 UTC

1 58770C 24011F   26258.13451389 -.00060737  00000+0 -17945-2 0  2582
2 58770  53.1581 210.9844 0001396  84.3360 282.6458 15.34420575    15

Отслеживайте STARLINK-31143 в реальном времени с AllMySat

Download on the App Store